This is the latest recevied weather packets stored in our database for station/object VK6DUG. If no packets are shown the sender has not sent any weather packets the latest 10 day(s).
| Time | Temp. | Humidity | Pressure | Rain* | Wind** | Luminosity | Snow |
|---|---|---|---|---|---|---|---|
| 1777845619 | 8.33° C | 95% | 1030.5 hPa | 0 mm | - | 0 W/m² | - |
| 1777845016 | 7.78° C | 95% | 1030.5 hPa | 0 mm | - | 0 W/m² | - |
| 1777844434 | 7.78° C | 95% | 1030.4 hPa | 0 mm | - | 0 W/m² | - |
| 1777843831 | 7.22° C | 95% | 1030.3 hPa | 0 mm | - | 0 W/m² | - |
| 1777843225 | 7.22° C | 95% | 1030.4 hPa | 0 mm | - | 0 W/m² | - |
| 1777842622 | 7.22° C | 94% | 1030.4 hPa | 0 mm | - | 0 W/m² | - |
| 1777842019 | 7.22° C | 94% | 1030.3 hPa | 0 mm | - | 0 W/m² | - |
| 1777841435 | 7.22° C | 94% | 1030.2 hPa | 0 mm | - | 0 W/m² | - |
| 1777840833 | 7.78° C | 94% | 1030.2 hPa | 0 mm | - | 0 W/m² | - |
| 1777840229 | 7.78° C | 94% | 1030.1 hPa | 0 mm | - | 0 W/m² | - |
| 1777839625 | 7.78° C | 94% | 1030 hPa | 0 mm | - | 0 W/m² | - |
| 1777839022 | 7.78° C | 94% | 1030 hPa | 0 mm | - | 0 W/m² | - |
| 1777838419 | 7.78° C | 94% | 1030.2 hPa | 0 mm | - | 0 W/m² | - |
| 1777837836 | 8.33° C | 94% | 1030.3 hPa | 0 mm | - | 0 W/m² | - |
| 1777837231 | 8.33° C | 94% | 1030.2 hPa | 0 mm | - | 0 W/m² | - |
| 1777836627 | 8.33° C | 93% | 1030.3 hPa | 0 mm | - | 0 W/m² | - |
| 1777836024 | 8.33° C | 93% | 1030.4 hPa | 0 mm | - | 0 W/m² | - |
| 1777835421 | 8.33° C | 93% | 1030.3 hPa | 0 mm | - | 0 W/m² | - |
| 1777834817 | 8.33° C | 93% | 1030.3 hPa | 0 mm | - | 0 W/m² | - |
| 1777834234 | 8.33° C | 93% | 1030.2 hPa | 0 mm | - | 0 W/m² | - |
| 1777833631 | 8.89° C | 93% | 1030.2 hPa | 0 mm | - | 0 W/m² | - |
| 1777833026 | 8.89° C | 93% | 1030.2 hPa | 0 mm | - | 0 W/m² | - |
| 1777832421 | 8.89° C | 93% | 1030.1 hPa | 0 mm | - | 0 W/m² | - |
| 1777831819 | 9.44° C | 93% | 1030.2 hPa | 0 mm | - | 0 W/m² | - |
| 1777831233 | 9.44° C | 93% | 1030.1 hPa | 0 mm | - | 0 W/m² | - |
* Rain latest hour (hover to see other rain measurements)
** Current wind speed in m/s (hover to see current wind gust speed)